,,PressureMeas_1m,,PRMeasQMR101_1,,RHStat155_1m_1,,SRMeasQMS101R_1m,,TAStat155_1m_1,,GenWind_1,,GenWind_1,
2019-03-02, 00:00:07,VALID,917.847,VALID,0.0,VALID,98.614,VALID,-0.006,VALID,20.548,INVALID,360.0,VALID,0.0,
2019-03-02, 00:01:07,VALID,917.854,VALID,0.0,VALID,98.511,VALID,0.015,VALID,20.478,VALID,44.0,VALID,0.0,
2019-03-02, 00:02:07,VALID,917.848,VALID,0.0,VALID,98.363,VALID,-0.006,VALID,20.447,INVALID,360.0,VALID,0.0,
2019-03-02, 00:03:07,VALID,917.837,VALID,0.0,VALID,98.326,VALID,-0.006,VALID,20.458,INVALID,360.0,VALID,0.0,
2019-03-02, 00:04:07,VALID,917.843,VALID,0.0,VALID,98.177,VALID,-0.001,VALID,20.432,INVALID,360.0,VALID,0.0,
2019-03-02, 00:05:07,VALID,917.855,VALID,0.0,VALID,98.055,VALID,-0.01,VALID,20.417,INVALID,360.0,VALID,0.0,
2019-03-02, 00:06:07,VALID,917.868,VALID,0.0,VALID,97.978,VALID,0.004,VALID,20.416,INVALID,360.0,VALID,0.0,
2019-03-02, 00:07:07,VALID,917.871,VALID,0.0,VALID,97.981,VALID,0.01,VALID,20.427,INVALID,360.0,VALID,0.0,
2019-03-02, 00:08:07,VALID,917.913,VALID,0.0,VALID,97.989,VALID,0.001,VALID,20.435,INVALID,360.0,VALID,0.0,
2019-03-02, 00:09:07,VALID,917.949,VALID,0.0,VALID,97.975,VALID,-0.002,VALID,20.432,INVALID,360.0,VALID,0.0,
2019-03-02, 00:10:07,VALID,917.967,VALID,0.0,VALID,97.995,VALID,-0.001,VALID,20.449,INVALID,360.0,VALID,0.0,
2019-03-02, 00:11:07,VALID,917.977,VALID,0.0,VALID,97.982,VALID,0.005,VALID,20.451,INVALID,360.0,VALID,0.0,
2019-03-02, 00:12:07,VALID,917.98,VALID,0.0,VALID,98.03,VALID,0.008,VALID,20.453,INVALID,360.0,VALID,0.0,
2019-03-02, 00:13:07,VALID,917.99,VALID,0.0,VALID,98.031,VALID,0.005,VALID,20.458,INVALID,360.0,VALID,0.0,
2019-03-02, 00:14:07,VALID,917.993,VALID,0.0,VALID,98.146,VALID,0.008,VALID,20.486,INVALID,360.0,VALID,0.0,
2019-03-02, 00:15:07,VALID,917.986,VALID,0.0,VALID,98.203,VALID,0.005,VALID,20.5,VALID,43.0,VALID,0.0,
2019-03-02, 00:16:07,VALID,917.978,VALID,0.0,VALID,98.152,VALID,0.002,VALID,20.452,INVALID,360.0,VALID,0.0,
2019-03-02, 00:17:07,VALID,917.957,VALID,0.0,VALID,98.132,VALID,0.004,VALID,20.425,INVALID,360.0,VALID,0.0,
2019-03-02, 00:18:07,VALID,917.94,VALID,0.0,VALID,98.146,VALID,0.001,VALID,20.404,INVALID,360.0,VALID,0.0,
2019-03-02, 00:19:07,VALID,917.93,VALID,0.0,VALID,98.126,VALID,-0.003,VALID,20.385,INVALID,360.0,VALID,0.0,
2019-03-02, 00:20:07,VALID,917.923,VALID,0.0,VALID,98.13,VALID,-0.009,VALID,20.376,INVALID,360.0,VALID,0.0,
2019-03-02, 00:21:07,VALID,917.922,VALID,0.0,VALID,98.122,VALID,-0.019,VALID,20.373,INVALID,360.0,VALID,0.0,
2019-03-02, 00:22:07,VALID,917.909,VALID,0.0,VALID,98.045,VALID,0.01,VALID,20.359,INVALID,360.0,VALID,0.0,
2019-03-02, 00:23:07,VALID,917.887,VALID,0.0,VALID,98.063,VALID,0.003,VALID,20.362,INVALID,360.0,VALID,0.0,
2019-03-02, 00:24:07,VALID,917.881,VALID,0.0,VALID,98.057,VALID,-0.0,VALID,20.371,INVALID,360.0,VALID,0.0,
2019-03-02, 00:25:07,VALID,917.874,VALID,0.0,VALID,98.145,VALID,0.003,VALID,20.432,INVALID,360.0,VALID,0.0,
2019-03-02, 00:26:07,VALID,917.895,VALID,0.0,VALID,98.101,VALID,0.007,VALID,20.435,INVALID,360.0,VALID,0.0,
2019-03-02, 00:27:07,VALID,917.913,VALID,0.0,VALID,98.058,VALID,0.008,VALID,20.434,INVALID,360.0,VALID,0.0,
2019-03-02, 00:28:06,VALID,917.923,VALID,0.0,VALID,98.015,VALID,-0.008,VALID,20.413,INVALID,360.0,VALID,0.0,
2019-03-02, 00:29:06,VALID,917.95,VALID,0.0,VALID,97.949,VALID,-0.029,VALID,20.388,INVALID,360.0,VALID,0.0,
2019-03-02, 00:30:06,VALID,917.953,VALID,0.0,VALID,97.889,VALID,-0.036,VALID,20.377,INVALID,360.0,VALID,0.0,
2019-03-02, 00:31:06,VALID,917.972,VALID,0.0,VALID,97.938,VALID,-0.052,VALID,20.398,INVALID,360.0,VALID,0.0,
2019-03-02, 00:32:06,VALID,917.978,VALID,0.0,VALID,97.931,VALID,-0.043,VALID,20.39,INVALID,360.0,VALID,0.0,
2019-03-02, 00:33:06,VALID,917.983,VALID,0.0,VALID,97.907,VALID,-0.045,VALID,20.367,INVALID,360.0,VALID,0.0,
2019-03-02, 00:34:06,VALID,917.979,VALID,0.0,VALID,97.943,VALID,-0.044,VALID,20.384,INVALID,360.0,VALID,0.0,
2019-03-02, 00:35:06,VALID,917.976,VALID,0.0,VALID,97.942,VALID,-0.049,VALID,20.37,INVALID,360.0,VALID,0.0,
2019-03-02, 00:36:06,VALID,917.962,VALID,0.0,VALID,97.923,VALID,-0.047,VALID,20.366,INVALID,360.0,VALID,0.0,
2019-03-02, 00:37:06,VALID,917.936,VALID,0.0,VALID,97.964,VALID,-0.046,VALID,20.38,INVALID,360.0,VALID,0.0,
2019-03-02, 00:38:06,VALID,917.929,VALID,0.0,VALID,97.942,VALID,-0.049,VALID,20.362,INVALID,360.0,VALID,0.0,
2019-03-02, 00:39:06,VALID,917.891,VALID,0.0,VALID,98.019,VALID,-0.034,VALID,20.373,VALID,44.0,VALID,0.0,
2019-03-02, 00:40:06,VALID,917.859,VALID,0.0,VALID,98.078,VALID,-0.047,VALID,20.379,INVALID,360.0,VALID,0.0,
2019-03-02, 00:41:06,VALID,917.863,VALID,0.0,VALID,98.1,VALID,-0.036,VALID,20.371,INVALID,360.0,VALID,0.0,
2019-03-02, 00:42:06,VALID,917.883,VALID,0.0,VALID,98.116,VALID,-0.021,VALID,20.374,INVALID,360.0,VALID,0.0,
2019-03-02, 00:43:06,VALID,917.871,VALID,0.0,VALID,98.107,VALID,-0.009,VALID,20.374,INVALID,360.0,VALID,0.0,
2019-03-02, 00:44:06,VALID,917.855,VALID,0.0,VALID,98.107,VALID,0.029,VALID,20.37,INVALID,360.0,VALID,0.0,
2019-03-02, 00:45:06,VALID,917.834,VALID,0.0,VALID,98.078,VALID,0.022,VALID,20.367,INVALID,360.0,VALID,0.0,
2019-03-02, 00:46:06,VALID,917.848,VALID,0.0,VALID,98.061,VALID,0.018,VALID,20.363,INVALID,360.0,VALID,0.0,
2019-03-02, 00:47:06,VALID,917.822,VALID,0.0,VALID,97.987,VALID,0.022,VALID,20.363,INVALID,360.0,VALID,0.0,
2019-03-02, 00:48:06,VALID,917.802,VALID,0.0,VALID,97.904,VALID,0.017,VALID,20.376,INVALID,360.0,VALID,0.0,
2019-03-02, 00:49:06,VALID,917.799,VALID,0.0,VALID,97.814,VALID,0.015,VALID,20.384,INVALID,360.0,VALID,0.0,
2019-03-02, 00:50:06,VALID,917.762,VALID,0.0,VALID,97.766,VALID,0.027,VALID,20.407,INVALID,360.0,VALID,0.0,
2019-03-02, 00:51:06,VALID,917.757,VALID,0.0,VALID,97.727,VALID,0.035,VALID,20.407,INVALID,360.0,VALID,0.0,
2019-03-02, 00:52:06,VALID,917.729,VALID,0.0,VALID,97.677,VALID,0.026,VALID,20.399,INVALID,360.0,VALID,0.0,
2019-03-02, 00:53:06,VALID,917.708,VALID,0.0,VALID,97.696,VALID,0.021,VALID,20.398,INVALID,360.0,VALID,0.0,
2019-03-02, 00:54:06,VALID,917.677,VALID,0.0,VALID,97.683,VALID,0.018,VALID,20.395,INVALID,360.0,VALID,0.0,
2019-03-02, 00:55:06,VALID,917.647,VALID,0.0,VALID,97.717,VALID,0.027,VALID,20.395,INVALID,360.0,VALID,0.0,
2019-03-02, 00:56:06,VALID,917.615,VALID,0.0,VALID,97.697,VALID,0.034,VALID,20.387,INVALID,360.0,VALID,0.0,
2019-03-02, 00:57:06,VALID,917.589,VALID,0.0,VALID,97.674,VALID,0.014,VALID,20.401,INVALID,360.0,VALID,0.0,
2019-03-02, 00:58:06,VALID,917.538,VALID,0.0,VALID,97.565,VALID,-0.005,VALID,20.412,INVALID,360.0,VALID,0.0,
2019-03-02, 00:59:06,VALID,917.504,VALID,0.0,VALID,97.495,VALID,-0.002,VALID,20.414,INVALID,360.0,VALID,0.0,
2019-03-02, 01:00:06,VALID,917.466,VALID,0.0,VALID,97.447,VALID,0.012,VALID,20.414,INVALID,360.0,VALID,0.0,
2019-03-02, 01:01:06,VALID,917.426,VALID,0.0,VALID,97.464,VALID,0.01,VALID,20.406,INVALID,360.0,VALID,0.0,
2019-03-02, 01:02:06,VALID,917.42,VALID,0.0,VALID,97.537,VALID,-0.01,VALID,20.405,INVALID,360.0,VALID,0.0,
2019-03-02, 01:03:06,VALID,917.439,VALID,0.0,VALID,97.593,VALID,0.017,VALID,20.408,INVALID,360.0,VALID,0.0,
2019-03-02, 01:04:06,VALID,917.417,VALID,0.0,VALID,97.63,VALID,0.007,VALID,20.407,INVALID,360.0,VALID,0.0,
2019-03-02, 01:05:06,VALID,917.395,VALID,0.0,VALID,97.589,VALID,0.012,VALID,20.427,INVALID,360.0,VALID,0.0,
2019-03-02, 01:06:06,VALID,917.366,VALID,0.0,VALID,97.466,VALID,0.021,VALID,20.455,INVALID,360.0,VALID,0.0,
2019-03-02, 01:07:06,VALID,917.319,VALID,0.0,VALID,97.342,VALID,0.013,VALID,20.488,INVALID,360.0,VALID,0.0,
2019-03-02, 01:08:06,VALID,917.294,VALID,0.0,VALID,97.191,VALID,0.002,VALID,20.515,INVALID,360.0,VALID,0.0,
2019-03-02, 01:09:06,VALID,917.258,VALID,0.0,VALID,97.065,VALID,-0.001,VALID,20.527,INVALID,360.0,VALID,0.0,
2019-03-02, 01:10:06,VALID,917.248,VALID,0.0,VALID,96.924,VALID,0.015,VALID,20.533,INVALID,360.0,VALID,0.0,
2019-03-02, 01:11:06,VALID,917.228,VALID,0.0,VALID,96.816,VALID,0.015,VALID,20.543,INVALID,360.0,VALID,0.0,
2019-03-02, 01:12:06,VALID,917.222,VALID,0.0,VALID,96.803,VALID,-0.011,VALID,20.542,INVALID,360.0,VALID,0.0,
2019-03-02, 01:13:06,VALID,917.211,VALID,0.0,VALID,96.611,VALID,-0.003,VALID,20.56,INVALID,360.0,VALID,0.0,
2019-03-02, 01:14:06,VALID,917.182,VALID,0.0,VALID,96.46,VALID,0.007,VALID,20.594,INVALID,360.0,VALID,0.0,
2019-03-02, 01:15:06,VALID,917.156,VALID,0.0,VALID,96.468,VALID,0.023,VALID,20.588,INVALID,360.0,VALID,0.0,
2019-03-02, 01:16:06,VALID,917.151,VALID,0.0,VALID,96.477,VALID,0.023,VALID,20.567,INVALID,360.0,VALID,0.0,
2019-03-02, 01:17:06,VALID,917.131,VALID,0.0,VALID,96.456,VALID,0.015,VALID,20.576,INVALID,360.0,VALID,0.0,
2019-03-02, 01:18:06,VALID,917.094,VALID,0.0,VALID,96.536,VALID,0.021,VALID,20.567,INVALID,360.0,VALID,0.0,
2019-03-02, 01:19:06,VALID,917.036,VALID,0.0,VALID,96.676,VALID,0.004,VALID,20.551,INVALID,360.0,VALID,0.0,
2019-03-02, 01:20:06,VALID,917.037,VALID,0.0,VALID,96.861,VALID,0.009,VALID,20.559,INVALID,360.0,VALID,0.0,
2019-03-02, 01:21:06,VALID,916.995,VALID,0.0,VALID,96.912,VALID,0.022,VALID,20.552,INVALID,360.0,VALID,0.0,
2019-03-02, 01:22:06,VALID,916.989,VALID,0.0,VALID,96.809,VALID,0.029,VALID,20.547,VALID,44.0,VALID,0.0,
2019-03-02, 01:23:06,VALID,916.958,VALID,0.0,VALID,96.739,VALID,0.016,VALID,20.545,INVALID,360.0,VALID,0.0,
2019-03-02, 01:24:06,VALID,916.961,VALID,0.0,VALID,96.671,VALID,0.028,VALID,20.544,INVALID,360.0,VALID,0.0,
2019-03-02, 01:25:06,VALID,916.96,VALID,0.0,VALID,96.655,VALID,0.009,VALID,20.546,VALID,44.0,VALID,0.0,
2019-03-02, 01:26:06,VALID,916.976,VALID,0.0,VALID,96.59,VALID,0.021,VALID,20.54,INVALID,360.0,VALID,0.0,
2019-03-02, 01:27:06,VALID,916.996,VALID,0.0,VALID,96.594,VALID,0.02,VALID,20.528,INVALID,360.0,VALID,0.0,
2019-03-02, 01:28:06,VALID,917.011,VALID,0.0,VALID,96.709,VALID,0.012,VALID,20.509,INVALID,360.0,VALID,0.0,
2019-03-02, 01:29:06,VALID,917.026,VALID,0.0,VALID,96.778,VALID,0.03,VALID,20.497,INVALID,360.0,VALID,0.0,
2019-03-02, 01:30:06,VALID,917.025,VALID,0.0,VALID,96.898,VALID,0.02,VALID,20.488,INVALID,360.0,VALID,0.0,
2019-03-02, 01:31:06,VALID,917.001,VALID,0.0,VALID,96.767,VALID,0.03,VALID,20.514,INVALID,360.0,VALID,0.0,
2019-03-02, 01:32:06,VALID,916.988,VALID,0.0,VALID,96.666,VALID,0.02,VALID,20.544,INVALID,360.0,VALID,0.0,
2019-03-02, 01:33:06,VALID,916.957,VALID,0.0,VALID,96.673,VALID,0.018,VALID,20.538,INVALID,360.0,VALID,0.0,
2019-03-02, 01:34:06,VALID,916.955,VALID,0.0,VALID,96.749,VALID,0.027,VALID,20.513,INVALID,360.0,VALID,0.0,
2019-03-02, 01:35:06,VALID,916.961,VALID,0.0,VALID,96.814,VALID,0.024,VALID,20.48,INVALID,360.0,VALID,0.0,
2019-03-02, 01:36:06,VALID,916.971,VALID,0.0,VALID,97.002,VALID,0.033,VALID,20.458,INVALID,360.0,VALID,0.0,
2019-03-02, 01:37:06,VALID,916.977,VALID,0.0,VALID,97.086,VALID,0.017,VALID,20.444,INVALID,360.0,VALID,0.0,
2019-03-02, 01:38:06,VALID,916.968,VALID,0.0,VALID,97.062,VALID,0.032,VALID,20.469,INVALID,360.0,VALID,0.0,
2019-03-02, 01:39:06,VALID,916.958,VALID,0.0,VALID,96.968,VALID,0.026,VALID,20.488,INVALID,360.0,VALID,0.0,
2019-03-02, 01:40:06,VALID,916.94,VALID,0.0,VALID,96.885,VALID,0.014,VALID,20.501,INVALID,360.0,VALID,0.0,
2019-03-02, 01:41:06,VALID,916.908,VALID,0.0,VALID,96.849,VALID,0.018,VALID,20.525,INVALID,360.0,VALID,0.0,
2019-03-02, 01:42:06,VALID,916.896,VALID,0.0,VALID,96.746,VALID,0.013,VALID,20.548,INVALID,360.0,VALID,0.0,
2019-03-02, 01:43:06,VALID,916.876,VALID,0.0,VALID,96.56,VALID,0.017,VALID,20.582,INVALID,360.0,VALID,0.0,
2019-03-02, 01:44:06,VALID,916.88,VALID,0.0,VALID,96.489,VALID,0.036,VALID,20.602,INVALID,360.0,VALID,0.0,
2019-03-02, 01:45:06,VALID,916.888,VALID,0.0,VALID,96.453,VALID,0.023,VALID,20.605,INVALID,360.0,VALID,0.0,
2019-03-02, 01:46:06,VALID,916.882,VALID,0.0,VALID,96.499,VALID,0.047,VALID,20.572,INVALID,360.0,VALID,0.0,
2019-03-02, 01:47:06,VALID,916.868,VALID,0.0,VALID,96.496,VALID,0.017,VALID,20.577,INVALID,360.0,VALID,0.0,
2019-03-02, 01:48:06,VALID,916.857,VALID,0.0,VALID,96.521,VALID,0.021,VALID,20.572,INVALID,360.0,VALID,0.0,
2019-03-02, 01:49:06,VALID,916.854,VALID,0.0,VALID,96.584,VALID,0.015,VALID,20.556,INVALID,360.0,VALID,0.0,
2019-03-02, 01:50:06,VALID,916.852,VALID,0.0,VALID,96.735,VALID,0.013,VALID,20.548,INVALID,360.0,VALID,0.0,
2019-03-02, 01:51:06,VALID,916.846,VALID,0.0,VALID,96.876,VALID,0.019,VALID,20.527,INVALID,360.0,VALID,0.0,
2019-03-02, 01:52:06,VALID,916.841,VALID,0.0,VALID,96.911,VALID,0.017,VALID,20.499,INVALID,360.0,VALID,0.0,
2019-03-02, 01:53:06,VALID,916.811,VALID,0.0,VALID,96.918,VALID,0.017,VALID,20.487,INVALID,360.0,VALID,0.0,
2019-03-02, 01:54:06,VALID,916.814,VALID,0.0,VALID,97.011,VALID,0.012,VALID,20.49,INVALID,360.0,VALID,0.0,
2019-03-02, 01:55:06,VALID,916.789,VALID,0.0,VALID,97.066,VALID,0.039,VALID,20.485,INVALID,360.0,VALID,0.0,
2019-03-02, 01:56:06,VALID,916.774,VALID,0.0,VALID,97.088,VALID,0.019,VALID,20.484,INVALID,360.0,VALID,0.0,
2019-03-02, 01:57:06,VALID,916.757,VALID,0.0,VALID,97.088,VALID,0.025,VALID,20.486,INVALID,360.0,VALID,0.0,
2019-03-02, 01:58:06,VALID,916.722,VALID,0.0,VALID,97.211,VALID,0.006,VALID,20.505,INVALID,360.0,VALID,0.0,
2019-03-02, 01:59:06,VALID,916.706,VALID,0.0,VALID,97.261,VALID,0.001,VALID,20.513,INVALID,360.0,VALID,0.0,
2019-03-02, 02:00:06,VALID,916.67,VALID,0.0,VALID,97.303,VALID,-0.02,VALID,20.518,INVALID,360.0,VALID,0.0,
2019-03-02, 02:01:06,VALID,916.654,VALID,0.0,VALID,97.345,VALID,-0.017,VALID,20.523,INVALID,360.0,VALID,0.0,
2019-03-02, 02:02:06,VALID,916.623,VALID,0.0,VALID,97.368,VALID,-0.015,VALID,20.506,INVALID,360.0,VALID,0.0,
2019-03-02, 02:03:06,VALID,916.599,VALID,0.0,VALID,97.343,VALID,-0.003,VALID,20.479,INVALID,360.0,VALID,0.0,
2019-03-02, 02:04:06,VALID,916.569,VALID,0.0,VALID,97.359,VALID,-0.018,VALID,20.453,INVALID,360.0,VALID,0.0,
2019-03-02, 02:05:06,VALID,916.565,VALID,0.0,VALID,97.338,VALID,-0.008,VALID,20.416,INVALID,360.0,VALID,0.0,
2019-03-02, 02:06:06,VALID,916.558,VALID,0.0,VALID,97.363,VALID,-0.011,VALID,20.387,VALID,44.0,VALID,0.0,
2019-03-02, 02:07:06,VALID,916.544,VALID,0.0,VALID,97.503,VALID,-0.027,VALID,20.375,VALID,44.0,VALID,0.0,
2019-03-02, 02:08:06,VALID,916.547,VALID,0.0,VALID,97.607,VALID,-0.013,VALID,20.356,VALID,44.0,VALID,0.0,
2019-03-02, 02:09:06,VALID,916.533,VALID,0.0,VALID,97.655,VALID,-0.02,VALID,20.318,INVALID,360.0,VALID,0.0,
2019-03-02, 02:10:06,VALID,916.52,VALID,0.0,VALID,97.652,VALID,-0.013,VALID,20.305,INVALID,360.0,VALID,0.0,
2019-03-02, 02:11:06,VALID,916.498,VALID,0.0,VALID,97.736,VALID,-0.011,VALID,20.322,VALID,44.0,VALID,0.0,
2019-03-02, 02:12:06,VALID,916.5,VALID,0.0,VALID,97.7,VALID,-0.011,VALID,20.319,INVALID,360.0,VALID,0.0,
2019-03-02, 02:13:06,VALID,916.49,VALID,0.0,VALID,97.657,VALID,0.002,VALID,20.32,INVALID,360.0,VALID,0.0,
2019-03-02, 02:14:06,VALID,916.498,VALID,0.0,VALID,97.602,VALID,0.01,VALID,20.31,INVALID,360.0,VALID,0.0,
2019-03-02, 02:15:06,VALID,916.474,VALID,0.0,VALID,97.623,VALID,0.015,VALID,20.293,INVALID,360.0,VALID,0.0,
2019-03-02, 02:16:06,VALID,916.487,VALID,0.0,VALID,97.633,VALID,0.011,VALID,20.277,INVALID,360.0,VALID,0.0,
2019-03-02, 02:17:06,VALID,916.485,VALID,0.0,VALID,97.607,VALID,0.005,VALID,20.287,INVALID,360.0,VALID,0.0,
2019-03-02, 02:18:06,VALID,916.481,VALID,0.0,VALID,97.537,VALID,0.001,VALID,20.332,VALID,44.0,VALID,0.0,
2019-03-02, 02:19:06,VALID,916.464,VALID,0.0,VALID,97.483,VALID,0.005,VALID,20.379,INVALID,360.0,VALID,0.0,
2019-03-02, 02:20:06,VALID,916.47,VALID,0.0,VALID,97.549,VALID,0.009,VALID,20.4,INVALID,360.0,VALID,0.0,
2019-03-02, 02:21:06,VALID,916.48,VALID,0.0,VALID,97.524,VALID,-0.004,VALID,20.398,INVALID,360.0,VALID,0.0,
2019-03-02, 02:22:06,VALID,916.47,VALID,0.0,VALID,97.552,VALID,-0.003,VALID,20.379,INVALID,360.0,VALID,0.0,
2019-03-02, 02:23:06,VALID,916.463,VALID,0.0,VALID,97.565,VALID,0.012,VALID,20.354,INVALID,360.0,VALID,0.0,
2019-03-02, 02:24:06,VALID,916.462,VALID,0.0,VALID,97.616,VALID,-0.002,VALID,20.343,INVALID,360.0,VALID,0.0,
2019-03-02, 02:25:06,VALID,916.459,VALID,0.0,VALID,97.8,VALID,-0.001,VALID,20.341,INVALID,360.0,VALID,0.0,
2019-03-02, 02:26:06,VALID,916.45,VALID,0.0,VALID,97.987,VALID,0.019,VALID,20.343,INVALID,360.0,VALID,0.0,
2019-03-02, 02:27:06,VALID,916.435,VALID,0.0,VALID,98.108,VALID,0.004,VALID,20.335,VALID,5.0,VALID,0.0,
2019-03-02, 02:28:06,VALID,916.429,VALID,0.0,VALID,98.177,VALID,0.0,VALID,20.306,VALID,5.0,VALID,0.0,
2019-03-02, 02:29:06,VALID,916.418,VALID,0.0,VALID,98.267,VALID,0.007,VALID,20.293,VALID,5.0,VALID,0.0,
2019-03-02, 02:30:06,VALID,916.404,VALID,0.0,VALID,98.412,VALID,0.01,VALID,20.334,VALID,5.0,VALID,0.0,
2019-03-02, 02:31:06,VALID,916.384,VALID,0.0,VALID,98.481,VALID,0.008,VALID,20.344,VALID,5.0,VALID,0.0,
2019-03-02, 02:32:06,VALID,916.371,VALID,0.0,VALID,98.506,VALID,0.004,VALID,20.342,VALID,5.0,VALID,0.0,
2019-03-02, 02:33:06,VALID,916.363,VALID,0.0,VALID,98.565,VALID,0.014,VALID,20.33,VALID,5.0,VALID,0.0,
2019-03-02, 02:34:06,VALID,916.341,VALID,0.0,VALID,98.542,VALID,0.02,VALID,20.291,INVALID,360.0,VALID,0.0,
2019-03-02, 02:35:06,VALID,916.345,VALID,0.0,VALID,98.532,VALID,0.004,VALID,20.246,INVALID,360.0,VALID,0.0,
2019-03-02, 02:36:06,VALID,916.345,VALID,0.0,VALID,98.537,VALID,0.003,VALID,20.208,INVALID,360.0,VALID,0.0,
2019-03-02, 02:37:06,VALID,916.324,VALID,0.0,VALID,98.553,VALID,0.014,VALID,20.185,INVALID,360.0,VALID,0.0,
2019-03-02, 02:38:06,VALID,916.327,VALID,0.0,VALID,98.558,VALID,0.007,VALID,20.164,INVALID,360.0,VALID,0.0,
2019-03-02, 02:39:06,VALID,916.324,VALID,0.0,VALID,98.581,VALID,0.009,VALID,20.161,INVALID,360.0,VALID,0.0,
2019-03-02, 02:40:06,VALID,916.315,VALID,0.0,VALID,98.565,VALID,0.007,VALID,20.134,INVALID,360.0,VALID,0.0,
2019-03-02, 02:41:06,VALID,916.33,VALID,0.0,VALID,98.568,VALID,-0.004,VALID,20.132,INVALID,360.0,VALID,0.0,
2019-03-02, 02:42:06,VALID,916.312,VALID,0.0,VALID,98.588,VALID,0.01,VALID,20.135,INVALID,360.0,VALID,0.0,
2019-03-02, 02:43:06,VALID,916.321,VALID,0.0,VALID,98.553,VALID,0.009,VALID,20.13,INVALID,360.0,VALID,0.0,
2019-03-02, 02:44:06,VALID,916.312,VALID,0.0,VALID,98.551,VALID,-0.006,VALID,20.14,INVALID,360.0,VALID,0.0,
2019-03-02, 02:45:06,VALID,916.294,VALID,0.0,VALID,98.545,VALID,-0.001,VALID,20.145,INVALID,360.0,VALID,0.0,
2019-03-02, 02:46:06,VALID,916.286,VALID,0.0,VALID,98.533,VALID,-0.024,VALID,20.138,INVALID,360.0,VALID,0.0,
2019-03-02, 02:47:06,VALID,916.295,VALID,0.0,VALID,98.547,VALID,-0.014,VALID,20.13,INVALID,360.0,VALID,0.0,
2019-03-02, 02:48:06,VALID,916.312,VALID,0.0,VALID,98.545,VALID,-0.01,VALID,20.113,INVALID,360.0,VALID,0.0,
2019-03-02, 02:49:06,VALID,916.305,VALID,0.0,VALID,98.517,VALID,-0.005,VALID,20.109,INVALID,360.0,VALID,0.0,
2019-03-02, 02:50:06,VALID,916.321,VALID,0.0,VALID,98.586,VALID,-0.009,VALID,20.154,INVALID,360.0,VALID,0.0,
2019-03-02, 02:51:06,VALID,916.332,VALID,0.0,VALID,98.643,VALID,-0.007,VALID,20.193,INVALID,360.0,VALID,0.0,
2019-03-02, 02:52:06,VALID,916.343,VALID,0.0,VALID,98.673,VALID,-0.003,VALID,20.22,INVALID,360.0,VALID,0.0,
2019-03-02, 02:53:06,VALID,916.361,VALID,0.0,VALID,98.643,VALID,-0.001,VALID,20.22,INVALID,360.0,VALID,0.0,
2019-03-02, 02:54:06,VALID,916.364,VALID,0.0,VALID,98.631,VALID,0.002,VALID,20.175,INVALID,360.0,VALID,0.0,
2019-03-02, 02:55:06,VALID,916.375,VALID,0.0,VALID,98.593,VALID,-0.001,VALID,20.144,INVALID,360.0,VALID,0.0,
2019-03-02, 02:56:06,VALID,916.393,VALID,0.0,VALID,98.61,VALID,-0.0,VALID,20.131,INVALID,360.0,VALID,0.0,
2019-03-02, 02:57:06,VALID,916.38,VALID,0.0,VALID,98.589,VALID,-0.006,VALID,20.12,INVALID,360.0,VALID,0.0,
2019-03-02, 02:58:06,VALID,916.398,VALID,0.0,VALID,98.616,VALID,-0.002,VALID,20.134,INVALID,360.0,VALID,0.0,
2019-03-02, 02:59:06,VALID,916.371,VALID,0.0,VALID,98.586,VALID,-0.011,VALID,20.121,INVALID,360.0,VALID,0.0,
2019-03-02, 03:00:06,VALID,916.347,VALID,0.0,VALID,98.571,VALID,-0.006,VALID,20.113,INVALID,360.0,VALID,0.0,
2019-03-02, 03:01:06,VALID,916.313,VALID,0.0,VALID,98.596,VALID,-0.014,VALID,20.116,INVALID,360.0,VALID,0.0,
2019-03-02, 03:02:06,VALID,916.28,VALID,0.0,VALID,98.586,VALID,-0.003,VALID,20.128,INVALID,360.0,VALID,0.0,
2019-03-02, 03:03:06,VALID,916.227,VALID,0.0,VALID,98.59,VALID,-0.007,VALID,20.144,INVALID,360.0,VALID,0.0,
2019-03-02, 03:04:06,VALID,916.206,VALID,0.0,VALID,98.596,VALID,-0.009,VALID,20.167,INVALID,360.0,VALID,0.0,
2019-03-02, 03:05:06,VALID,916.195,VALID,0.0,VALID,98.641,VALID,0.003,VALID,20.214,INVALID,360.0,VALID,0.0,
2019-03-02, 03:06:06,VALID,916.182,VALID,0.0,VALID,98.64,VALID,-0.01,VALID,20.244,INVALID,360.0,VALID,0.0,
2019-03-02, 03:07:06,VALID,916.204,VALID,0.0,VALID,98.636,VALID,-0.02,VALID,20.252,INVALID,360.0,VALID,0.0,
2019-03-02, 03:08:06,VALID,916.208,VALID,0.0,VALID,98.653,VALID,-0.013,VALID,20.282,INVALID,360.0,VALID,0.0,
2019-03-02, 03:09:06,VALID,916.22,VALID,0.0,VALID,98.624,VALID,0.009,VALID,20.263,INVALID,360.0,VALID,0.0,
2019-03-02, 03:10:06,VALID,916.204,VALID,0.0,VALID,98.604,VALID,-0.016,VALID,20.24,INVALID,360.0,VALID,0.0,
2019-03-02, 03:11:06,VALID,916.242,VALID,0.0,VALID,98.588,VALID,-0.001,VALID,20.215,INVALID,360.0,VALID,0.0,
2019-03-02, 03:12:06,VALID,916.231,VALID,0.0,VALID,98.582,VALID,-0.001,VALID,20.198,INVALID,360.0,VALID,0.0,
2019-03-02, 03:13:06,VALID,916.242,VALID,0.0,VALID,98.605,VALID,-0.001,VALID,20.18,INVALID,360.0,VALID,0.0,
2019-03-02, 03:14:06,VALID,916.233,VALID,0.0,VALID,98.619,VALID,-0.001,VALID,20.171,INVALID,360.0,VALID,0.0,
2019-03-02, 03:15:06,VALID,916.252,VALID,0.0,VALID,98.649,VALID,-0.01,VALID,20.176,INVALID,360.0,VALID,0.0,
2019-03-02, 03:16:06,VALID,916.236,VALID,0.0,VALID,98.667,VALID,-0.006,VALID,20.185,INVALID,360.0,VALID,0.0,
2019-03-02, 03:17:06,VALID,916.252,VALID,0.0,VALID,98.696,VALID,0.016,VALID,20.194,INVALID,360.0,VALID,0.0,
2019-03-02, 03:18:06,VALID,916.261,VALID,0.0,VALID,98.722,VALID,0.011,VALID,20.201,INVALID,360.0,VALID,0.0,
2019-03-02, 03:19:06,VALID,916.276,VALID,0.0,VALID,98.744,VALID,-0.005,VALID,20.21,INVALID,360.0,VALID,0.0,
2019-03-02, 03:20:06,VALID,916.284,VALID,0.0,VALID,98.76,VALID,0.005,VALID,20.226,INVALID,360.0,VALID,0.0,
2019-03-02, 03:21:06,VALID,916.301,VALID,0.0,VALID,98.806,VALID,0.008,VALID,20.251,INVALID,360.0,VALID,0.0,
2019-03-02, 03:22:06,VALID,916.301,VALID,0.0,VALID,98.822,VALID,-0.001,VALID,20.256,INVALID,360.0,VALID,0.0,
2019-03-02, 03:23:06,VALID,916.316,VALID,0.0,VALID,98.848,VALID,0.017,VALID,20.282,INVALID,360.0,VALID,0.0,
2019-03-02, 03:24:06,VALID,916.312,VALID,0.0,VALID,98.868,VALID,-0.009,VALID,20.308,INVALID,360.0,VALID,0.0,
2019-03-02, 03:25:06,VALID,916.303,VALID,0.0,VALID,98.885,VALID,0.002,VALID,20.323,INVALID,360.0,VALID,0.0,
2019-03-02, 03:26:06,VALID,916.303,VALID,0.0,VALID,98.863,VALID,0.004,VALID,20.321,INVALID,360.0,VALID,0.0,
2019-03-02, 03:27:06,VALID,916.318,VALID,0.0,VALID,98.9,VALID,0.002,VALID,20.326,INVALID,360.0,VALID,0.0,
2019-03-02, 03:28:06,VALID,916.305,VALID,0.0,VALID,98.916,VALID,-0.013,VALID,20.337,INVALID,360.0,VALID,0.0,
2019-03-02, 03:29:06,VALID,916.304,VALID,0.0,VALID,98.922,VALID,-0.005,VALID,20.344,INVALID,360.0,VALID,0.0,
2019-03-02, 03:30:06,VALID,916.309,VALID,0.0,VALID,98.935,VALID,0.016,VALID,20.349,INVALID,360.0,VALID,0.0,
2019-03-02, 03:31:06,VALID,916.314,VALID,0.0,VALID,98.918,VALID,0.022,VALID,20.36,INVALID,360.0,VALID,0.0,
2019-03-02, 03:32:06,VALID,916.315,VALID,0.0,VALID,98.924,VALID,0.008,VALID,20.353,INVALID,360.0,VALID,0.0,
2019-03-02, 03:33:06,VALID,916.336,VALID,0.0,VALID,98.927,VALID,0.018,VALID,20.351,INVALID,360.0,VALID,0.0,
2019-03-02, 03:34:06,VALID,916.326,VALID,0.0,VALID,98.93,VALID,0.011,VALID,20.34,INVALID,360.0,VALID,0.0,
2019-03-02, 03:35:06,VALID,916.345,VALID,0.0,VALID,98.945,VALID,0.023,VALID,20.34,INVALID,360.0,VALID,0.0,
2019-03-02, 03:36:06,VALID,916.354,VALID,0.0,VALID,98.941,VALID,0.009,VALID,20.315,INVALID,360.0,VALID,0.0,
2019-03-02, 03:37:06,VALID,916.346,VALID,0.0,VALID,98.931,VALID,0.004,VALID,20.296,INVALID,360.0,VALID,0.0,
2019-03-02, 03:38:06,VALID,916.348,VALID,0.0,VALID,98.95,VALID,0.013,VALID,20.309,INVALID,360.0,VALID,0.0,